Time,TemperatureF,DewpointF,PressureIn,WindDirection,WindDirectionDegrees,WindSpeedMPH,WindSpeedGustMPH,Humidity,HourlyPrecipIn,Conditions,Clouds,dailyrainin,SoftwareType,DateUTC
2013-12-07 00:01:00,29.7,27.9,30.26,North,9,2.0,4.0,93,0.00,,---,0.00,VWS V13.01,2013-12-07 05:01:00,
2013-12-07 00:02:00,29.7,28.2,30.26,North,9,2.0,4.0,94,0.00,,---,0.00,VWS V13.01,2013-12-07 05:02:00,
2013-12-07 00:07:00,29.6,28.1,30.27,North,360,1.0,5.0,94,0.00,,---,0.00,VWS V13.01,2013-12-07 05:07:00,
2013-12-07 00:12:00,29.7,28.2,30.27,North,360,1.0,1.0,94,0.00,,---,0.00,VWS V13.01,2013-12-07 05:12:00,
2013-12-07 00:17:00,29.6,28.1,30.27,North,360,1.0,3.0,94,0.00,,---,0.00,VWS V13.01,2013-12-07 05:17:00,
2013-12-07 00:22:00,29.6,28.1,30.26,NNE,19,2.0,5.0,94,0.00,,---,0.00,VWS V13.01,2013-12-07 05:22:00,
2013-12-07 00:27:00,29.5,28.0,30.26,North,5,3.0,6.0,94,0.00,,---,0.00,VWS V13.01,2013-12-07 05:27:00,
2013-12-07 00:32:00,29.5,28.0,30.26,NNW,342,3.0,6.0,94,0.00,,---,0.00,VWS V13.01,2013-12-07 05:32:00,
2013-12-07 00:37:00,29.4,27.9,30.26,NNW,338,1.0,6.0,94,0.00,,---,0.00,VWS V13.01,2013-12-07 05:37:00,
2013-12-07 00:42:00,29.4,27.6,30.27,North,5,2.0,7.0,93,0.00,,---,0.00,VWS V13.01,2013-12-07 05:42:00,
2013-12-07 00:47:00,29.4,27.6,30.27,NNE,16,2.0,7.0,93,0.00,,---,0.00,VWS V13.01,2013-12-07 05:47:00,
2013-12-07 00:52:00,29.4,27.6,30.26,North,355,2.0,4.0,93,0.00,,---,0.00,VWS V13.01,2013-12-07 05:52:00,
2013-12-07 00:57:00,29.3,27.5,30.27,North,355,0.0,4.0,93,0.00,,---,0.00,VWS V13.01,2013-12-07 05:57:00,
2013-12-07 01:02:00,29.3,27.5,30.27,North,355,2.0,2.0,93,0.00,,---,0.00,VWS V13.01,2013-12-07 06:02:00,
2013-12-07 01:07:00,29.3,27.5,30.27,NNW,336,0.0,5.0,93,0.00,,---,0.00,VWS V13.01,2013-12-07 06:07:00,
2013-12-07 01:12:00,29.2,27.4,30.27,NW,316,1.0,4.0,93,0.00,,---,0.00,VWS V13.01,2013-12-07 06:12:00,
2013-12-07 01:17:00,29.1,27.3,30.27,NNW,345,6.0,6.0,93,0.00,,---,0.00,VWS V13.01,2013-12-07 06:17:00,
2013-12-07 01:22:00,29.0,27.2,30.27,North,355,1.0,5.0,93,0.00,,---,0.00,VWS V13.01,2013-12-07 06:22:00,
2013-12-07 01:27:00,28.9,26.9,30.27,NNW,343,2.0,5.0,92,0.00,,---,0.00,VWS V13.01,2013-12-07 06:27:00,
2013-12-07 01:32:00,28.9,26.9,30.28,NNW,344,0.0,2.0,92,0.00,,---,0.00,VWS V13.01,2013-12-07 06:32:00,
2013-12-07 01:37:00,28.9,26.9,30.28,NNE,12,0.0,4.0,92,0.00,,---,0.00,VWS V13.01,2013-12-07 06:37:00,
2013-12-07 01:42:00,28.8,26.8,30.28,North,355,0.0,4.0,92,0.00,,---,0.00,VWS V13.01,2013-12-07 06:42:00,
2013-12-07 01:47:00,28.8,26.8,30.28,NW,321,1.0,4.0,92,0.00,,---,0.00,VWS V13.01,2013-12-07 06:47:00,
2013-12-07 01:52:00,28.8,26.8,30.28,NW,321,0.0,1.0,92,0.00,,---,0.00,VWS V13.01,2013-12-07 06:52:00,
2013-12-07 01:57:00,28.7,26.7,30.28,NNW,348,1.0,4.0,92,0.00,,---,0.00,VWS V13.01,2013-12-07 06:57:00,
2013-12-07 02:02:00,28.8,26.8,30.28,NNW,342,0.0,4.0,92,0.00,,---,0.00,VWS V13.01,2013-12-07 07:02:00,
2013-12-07 02:07:00,28.8,26.8,30.28,NNW,342,1.0,4.0,92,0.00,,---,0.00,VWS V13.01,2013-12-07 07:07:00,
2013-12-07 02:12:00,28.8,26.8,30.29,NNW,342,0.0,1.0,92,0.00,,---,0.00,VWS V13.01,2013-12-07 07:12:00,
2013-12-07 02:17:00,28.8,26.8,30.29,NNW,342,0.0,2.0,92,0.00,,---,0.00,VWS V13.01,2013-12-07 07:17:00,
2013-12-07 02:22:00,28.8,26.8,30.29,NNW,342,2.0,3.0,92,0.00,,---,0.00,VWS V13.01,2013-12-07 07:22:00,
2013-12-07 02:27:00,28.8,26.8,30.29,NNW,342,0.0,3.0,92,0.00,,---,0.00,VWS V13.01,2013-12-07 07:27:00,
2013-12-07 02:32:00,28.9,26.9,30.29,NNW,342,0.0,1.0,92,0.00,,---,0.00,VWS V13.01,2013-12-07 07:32:00,
2013-12-07 02:37:00,28.9,26.9,30.30,NNW,342,1.0,2.0,92,0.00,,---,0.00,VWS V13.01,2013-12-07 07:37:00,
2013-12-07 02:42:00,28.9,26.9,30.30,NNW,342,0.0,2.0,92,0.00,,---,0.00,VWS V13.01,2013-12-07 07:42:00,
2013-12-07 02:47:00,28.9,26.9,30.30,NNW,342,1.0,3.0,92,0.00,,---,0.00,VWS V13.01,2013-12-07 07:47:00,
2013-12-07 02:52:00,28.8,26.8,30.30,NNW,342,0.0,2.0,92,0.00,,---,0.00,VWS V13.01,2013-12-07 07:52:00,
2013-12-07 02:57:00,28.8,26.8,30.30,NNW,342,0.0,2.0,92,0.00,,---,0.00,VWS V13.01,2013-12-07 07:57:00,
2013-12-07 03:02:00,28.8,26.8,30.30,NNW,342,1.0,2.0,92,0.00,,---,0.00,VWS V13.01,2013-12-07 08:02:00,
2013-12-07 03:07:00,28.8,26.8,30.31,NNW,342,0.0,3.0,92,0.00,,---,0.00,VWS V13.01,2013-12-07 08:07:00,
2013-12-07 03:12:00,28.8,26.8,30.31,NW,313,0.0,3.0,92,0.00,,---,0.00,VWS V13.01,2013-12-07 08:12:00,
2013-12-07 03:17:00,28.8,26.8,30.31,NW,313,0.0,3.0,92,0.00,,---,0.00,VWS V13.01,2013-12-07 08:17:00,
2013-12-07 03:22:00,28.8,26.8,30.31,NW,313,1.0,3.0,92,0.00,,---,0.00,VWS V13.01,2013-12-07 08:22:00,
2013-12-07 03:27:00,28.8,26.8,30.31,NW,313,2.0,3.0,92,0.00,,---,0.00,VWS V13.01,2013-12-07 08:27:00,
2013-12-07 03:32:00,28.8,26.8,30.31,NW,313,0.0,1.0,92,0.00,,---,0.00,VWS V13.01,2013-12-07 08:32:00,
2013-12-07 03:37:00,28.8,27.0,30.31,NW,313,0.0,1.0,93,0.00,,---,0.00,VWS V13.01,2013-12-07 08:37:00,
2013-12-07 03:42:00,28.8,27.0,30.31,WNW,300,0.0,3.0,93,0.00,,---,0.00,VWS V13.01,2013-12-07 08:42:00,
2013-12-07 03:47:00,28.8,26.8,30.31,WNW,300,1.0,3.0,92,0.00,,---,0.00,VWS V13.01,2013-12-07 08:47:00,
2013-12-07 03:52:00,28.8,26.8,30.32,WNW,284,0.0,3.0,92,0.00,,---,0.00,VWS V13.01,2013-12-07 08:52:00,
2013-12-07 03:57:00,28.8,26.8,30.32,West,273,1.0,3.0,92,0.00,,---,0.00,VWS V13.01,2013-12-07 08:57:00,
2013-12-07 04:02:00,28.8,26.8,30.32,WNW,286,0.0,3.0,92,0.00,,---,0.00,VWS V13.01,2013-12-07 09:02:00,
2013-12-07 04:07:00,28.8,26.8,30.32,NW,304,0.0,5.0,92,0.00,,---,0.00,VWS V13.01,2013-12-07 09:07:00,
2013-12-07 04:12:00,28.8,26.8,30.32,WNW,297,1.0,6.0,92,0.00,,---,0.00,VWS V13.01,2013-12-07 09:12:00,
2013-12-07 04:17:00,28.8,26.8,30.33,NW,309,3.0,6.0,92,0.00,,---,0.00,VWS V13.01,2013-12-07 09:17:00,
2013-12-07 04:22:00,28.8,26.8,30.33,WNW,297,5.0,5.0,92,0.00,,---,0.00,VWS V13.01,2013-12-07 09:22:00,
2013-12-07 04:27:00,28.8,26.8,30.33,NNW,327,2.0,5.0,92,0.00,,---,0.00,VWS V13.01,2013-12-07 09:27:00,
2013-12-07 04:32:00,28.7,26.7,30.34,WNW,286,2.0,4.0,92,0.00,,---,0.00,VWS V13.01,2013-12-07 09:32:00,
2013-12-07 04:37:00,28.7,26.7,30.33,NW,309,0.0,4.0,92,0.00,,---,0.00,VWS V13.01,2013-12-07 09:37:00,
2013-12-07 04:42:00,28.7,26.4,30.33,NW,321,1.0,3.0,91,0.00,,---,0.00,VWS V13.01,2013-12-07 09:42:00,
2013-12-07 04:47:00,28.7,26.7,30.34,NW,305,1.0,5.0,92,0.00,,---,0.00,VWS V13.01,2013-12-07 09:47:00,
2013-12-07 04:52:00,28.7,26.7,30.34,NW,319,1.0,6.0,92,0.00,,---,0.00,VWS V13.01,2013-12-07 09:52:00,
2013-12-07 04:57:00,28.6,26.3,30.34,WNW,290,3.0,6.0,91,0.00,,---,0.00,VWS V13.01,2013-12-07 09:57:00,
2013-12-07 05:02:00,28.5,26.5,30.35,West,281,1.0,4.0,92,0.00,,---,0.00,VWS V13.01,2013-12-07 10:02:00,
2013-12-07 05:07:00,28.5,26.5,30.35,West,281,4.0,6.0,92,0.00,,---,0.00,VWS V13.01,2013-12-07 10:07:00,
2013-12-07 05:12:00,28.4,26.4,30.35,NW,306,0.0,3.0,92,0.00,,---,0.00,VWS V13.01,2013-12-07 10:12:00,
2013-12-07 05:17:00,28.4,26.4,30.36,WSW,238,3.0,5.0,92,0.00,,---,0.00,VWS V13.01,2013-12-07 10:17:00,
2013-12-07 05:22:00,28.4,26.4,30.36,West,265,0.0,3.0,92,0.00,,---,0.00,VWS V13.01,2013-12-07 10:22:00,
2013-12-07 05:27:00,28.4,26.4,30.36,NW,318,3.0,4.0,92,0.00,,---,0.00,VWS V13.01,2013-12-07 10:27:00,
2013-12-07 05:32:00,28.4,26.1,30.36,NNW,337,4.0,6.0,91,0.00,,---,0.00,VWS V13.01,2013-12-07 10:32:00,
2013-12-07 05:37:00,28.4,25.9,30.37,NW,308,3.0,6.0,90,0.00,,---,0.00,VWS V13.01,2013-12-07 10:37:00,
2013-12-07 05:42:00,28.3,25.8,30.36,WNW,294,5.0,6.0,90,0.00,,---,0.00,VWS V13.01,2013-12-07 10:42:00,
2013-12-07 05:47:00,28.3,25.5,30.37,NNW,327,0.0,7.0,89,0.00,,---,0.00,VWS V13.01,2013-12-07 10:47:00,
2013-12-07 05:52:00,28.4,25.6,30.37,NNW,331,2.0,3.0,89,0.00,,---,0.00,VWS V13.01,2013-12-07 10:52:00,
2013-12-07 05:57:00,28.3,25.5,30.38,WNW,298,1.0,9.0,89,0.00,,---,0.00,VWS V13.01,2013-12-07 10:57:00,
2013-12-07 06:02:00,28.3,25.5,30.38,WNW,286,1.0,4.0,89,0.00,,---,0.00,VWS V13.01,2013-12-07 11:02:00,
2013-12-07 06:07:00,28.3,25.5,30.38,WNW,296,1.0,5.0,89,0.00,,---,0.00,VWS V13.01,2013-12-07 11:07:00,
2013-12-07 06:12:00,28.3,25.5,30.39,NW,304,5.0,7.0,89,0.00,,---,0.00,VWS V13.01,2013-12-07 11:12:00,
2013-12-07 06:17:00,28.2,25.4,30.39,NNW,328,4.0,7.0,89,0.00,,---,0.00,VWS V13.01,2013-12-07 11:17:00,
2013-12-07 06:22:00,28.2,25.4,30.39,NNW,327,0.0,4.0,89,0.00,,---,0.00,VWS V13.01,2013-12-07 11:22:00,
2013-12-07 06:27:00,28.2,25.4,30.40,NW,313,3.0,4.0,89,0.00,,---,0.00,VWS V13.01,2013-12-07 11:27:00,
2013-12-07 06:32:00,28.2,25.6,30.40,NW,317,2.0,6.0,90,0.00,,---,0.00,VWS V13.01,2013-12-07 11:32:00,
2013-12-07 06:37:00,28.2,25.6,30.40,NW,317,0.0,6.0,90,0.00,,---,0.00,VWS V13.01,2013-12-07 11:37:00,
2013-12-07 06:42:00,28.2,25.6,30.41,West,273,1.0,5.0,90,0.00,,---,0.00,VWS V13.01,2013-12-07 11:42:00,
2013-12-07 06:47:00,28.1,25.5,30.41,West,261,0.0,5.0,90,0.00,,---,0.00,VWS V13.01,2013-12-07 11:47:00,
2013-12-07 06:52:00,28.1,25.5,30.41,NW,311,3.0,4.0,90,0.00,,---,0.00,VWS V13.01,2013-12-07 11:52:00,
2013-12-07 06:57:00,28.0,25.2,30.41,NW,317,1.0,6.0,89,0.00,,---,0.00,VWS V13.01,2013-12-07 11:57:00,
2013-12-07 07:02:00,28.0,24.9,30.41,West,279,0.0,5.0,88,0.00,,---,0.00,VWS V13.01,2013-12-07 12:02:00,
2013-12-07 07:07:00,27.9,25.1,30.41,West,262,4.0,5.0,89,0.00,,---,0.00,VWS V13.01,2013-12-07 12:07:00,
2013-12-07 07:12:00,27.9,25.1,30.42,WNW,285,0.0,4.0,89,0.00,,---,0.00,VWS V13.01,2013-12-07 12:12:00,
2013-12-07 07:17:00,27.9,25.1,30.42,WNW,297,4.0,6.0,89,0.00,,---,0.00,VWS V13.01,2013-12-07 12:17:00,
2013-12-07 07:22:00,27.9,24.8,30.42,WNW,283,0.0,3.0,88,0.00,,---,0.00,VWS V13.01,2013-12-07 12:22:00,
2013-12-07 07:27:00,27.8,24.7,30.42,West,277,1.0,3.0,88,0.00,,---,0.00,VWS V13.01,2013-12-07 12:27:00,
2013-12-07 07:32:00,27.8,24.7,30.43,West,274,1.0,3.0,88,0.00,,---,0.00,VWS V13.01,2013-12-07 12:32:00,
2013-12-07 07:37:00,27.7,24.6,30.43,West,263,6.0,7.0,88,0.00,,---,0.00,VWS V13.01,2013-12-07 12:37:00,
2013-12-07 07:42:00,27.7,24.6,30.43,West,274,0.0,5.0,88,0.00,,---,0.00,VWS V13.01,2013-12-07 12:42:00,
2013-12-07 07:47:00,27.6,24.5,30.44,West,269,4.0,5.0,88,0.00,,---,0.00,VWS V13.01,2013-12-07 12:47:00,
2013-12-07 07:52:00,27.6,24.5,30.44,West,273,2.0,5.0,88,0.00,,---,0.00,VWS V13.01,2013-12-07 12:52:00,
2013-12-07 07:57:00,27.5,24.4,30.44,West,269,6.0,6.0,88,0.00,,---,0.00,VWS V13.01,2013-12-07 12:57:00,
2013-12-07 08:02:00,27.5,24.4,30.44,WNW,299,0.0,3.0,88,0.00,,---,0.00,VWS V13.01,2013-12-07 13:02:00,
2013-12-07 08:07:00,27.6,24.5,30.44,WNW,299,0.0,3.0,88,0.00,,---,0.00,VWS V13.01,2013-12-07 13:07:00,
2013-12-07 08:12:00,27.6,24.5,30.44,WNW,300,0.0,4.0,88,0.00,,---,0.00,VWS V13.01,2013-12-07 13:12:00,
2013-12-07 08:17:00,27.6,24.5,30.45,WNW,300,3.0,4.0,88,0.00,,---,0.00,VWS V13.01,2013-12-07 13:17:00,
2013-12-07 08:22:00,27.6,24.2,30.45,WNW,286,5.0,5.0,87,0.00,,---,0.00,VWS V13.01,2013-12-07 13:22:00,
2013-12-07 08:27:00,27.6,24.2,30.45,WNW,297,1.0,6.0,87,0.00,,---,0.00,VWS V13.01,2013-12-07 13:27:00,
2013-12-07 08:31:00,27.6,24.2,30.45,WNW,294,1.0,3.0,87,0.00,,---,0.00,VWS V13.01,2013-12-07 13:31:00,
2013-12-07 08:36:00,27.6,24.5,30.46,West,268,2.0,3.0,88,0.00,,---,0.00,VWS V13.01,2013-12-07 13:36:00,
2013-12-07 08:41:00,27.7,24.6,30.46,West,268,0.0,3.0,88,0.00,,---,0.00,VWS V13.01,2013-12-07 13:41:00,
2013-12-07 08:46:00,27.7,24.6,30.46,WNW,294,1.0,3.0,88,0.00,,---,0.00,VWS V13.01,2013-12-07 13:46:00,
2013-12-07 08:51:00,27.7,24.6,30.46,NW,307,2.0,4.0,88,0.00,,---,0.00,VWS V13.01,2013-12-07 13:51:00,
2013-12-07 08:56:00,27.7,24.3,30.47,NW,307,0.0,4.0,87,0.00,,---,0.00,VWS V13.01,2013-12-07 13:56:00,
2013-12-07 09:01:00,27.8,24.4,30.47,WNW,284,5.0,6.0,87,0.00,,---,0.00,VWS V13.01,2013-12-07 14:01:00,
2013-12-07 09:06:00,27.7,24.3,30.47,WNW,293,0.0,6.0,87,0.00,,---,0.00,VWS V13.01,2013-12-07 14:06:00,
2013-12-07 09:11:00,27.7,24.3,30.47,WNW,290,2.0,4.0,87,0.00,,---,0.00,VWS V13.01,2013-12-07 14:11:00,
2013-12-07 09:16:00,27.7,24.3,30.47,WSW,238,3.0,4.0,87,0.00,,---,0.00,VWS V13.01,2013-12-07 14:16:00,
2013-12-07 09:21:00,27.8,24.4,30.48,West,265,2.0,5.0,87,0.00,,---,0.00,VWS V13.01,2013-12-07 14:21:00,
2013-12-07 09:26:00,27.9,24.5,30.48,WNW,284,0.0,5.0,87,0.00,,---,0.00,VWS V13.01,2013-12-07 14:26:00,
2013-12-07 09:31:00,27.9,24.5,30.48,WNW,302,2.0,7.0,87,0.00,,---,0.00,VWS V13.01,2013-12-07 14:31:00,
2013-12-07 09:36:00,28.0,24.4,30.48,West,263,5.0,7.0,86,0.00,,---,0.00,VWS V13.01,2013-12-07 14:36:00,
2013-12-07 09:41:00,27.9,24.3,30.49,WNW,298,1.0,8.0,86,0.00,,---,0.00,VWS V13.01,2013-12-07 14:41:00,
2013-12-07 09:46:00,28.0,24.4,30.49,West,260,1.0,8.0,86,0.00,,---,0.00,VWS V13.01,2013-12-07 14:46:00,
2013-12-07 09:51:00,28.0,24.4,30.49,WNW,303,2.0,5.0,86,0.00,,---,0.00,VWS V13.01,2013-12-07 14:51:00,
2013-12-07 09:56:00,28.0,24.4,30.49,NW,320,0.0,5.0,86,0.00,,---,0.00,VWS V13.01,2013-12-07 14:56:00,
2013-12-07 10:01:00,28.1,24.2,30.49,WNW,288,1.0,7.0,85,0.00,,---,0.00,VWS V13.01,2013-12-07 15:01:00,
2013-12-07 10:06:00,28.0,24.1,30.49,WNW,287,3.0,7.0,85,0.00,,---,0.00,VWS V13.01,2013-12-07 15:06:00,
2013-12-07 10:12:00,28.1,24.5,30.50,WNW,293,5.0,7.0,86,0.00,,---,0.00,VWS V13.01,2013-12-07 15:12:00,
2013-12-07 10:17:00,28.1,24.2,30.50,WNW,294,1.0,7.0,85,0.00,,---,0.00,VWS V13.01,2013-12-07 15:17:00,
2013-12-07 10:22:00,28.1,24.2,30.50,WNW,301,2.0,3.0,85,0.00,,---,0.00,VWS V13.01,2013-12-07 15:22:00,
2013-12-07 10:27:00,28.1,23.9,30.50,NW,310,2.0,7.0,84,0.00,,---,0.00,VWS V13.01,2013-12-07 15:27:00,
2013-12-07 10:32:00,28.1,24.2,30.50,NW,312,3.0,6.0,85,0.00,,---,0.00,VWS V13.01,2013-12-07 15:32:00,
2013-12-07 10:37:00,28.1,24.2,30.50,NW,309,1.0,6.0,85,0.00,,---,0.00,VWS V13.01,2013-12-07 15:37:00,
2013-12-07 10:42:00,28.1,24.2,30.50,NW,313,2.0,6.0,85,0.00,,---,0.00,VWS V13.01,2013-12-07 15:42:00,
2013-12-07 10:47:00,28.2,24.0,30.50,NW,318,2.0,6.0,84,0.00,,---,0.00,VWS V13.01,2013-12-07 15:47:00,
2013-12-07 10:52:00,28.2,24.0,30.50,North,355,2.0,4.0,84,0.00,,---,0.00,VWS V13.01,2013-12-07 15:52:00,
2013-12-07 10:57:00,28.2,24.0,30.50,NW,311,2.0,8.0,84,0.00,,---,0.00,VWS V13.01,2013-12-07 15:57:00,
2013-12-07 11:02:00,28.2,23.7,30.50,NNW,330,3.0,5.0,83,0.00,,---,0.00,VWS V13.01,2013-12-07 16:02:00,
2013-12-07 11:07:00,28.2,23.4,30.50,NNW,338,5.0,6.0,82,0.00,,---,0.00,VWS V13.01,2013-12-07 16:07:00,
2013-12-07 11:12:00,28.2,23.7,30.49,West,277,1.0,5.0,83,0.00,,---,0.00,VWS V13.01,2013-12-07 16:12:00,
2013-12-07 11:17:00,28.3,24.1,30.49,NW,319,3.0,5.0,84,0.00,,---,0.00,VWS V13.01,2013-12-07 16:17:00,
2013-12-07 11:22:00,28.4,23.9,30.50,NW,313,4.0,6.0,83,0.00,,---,0.00,VWS V13.01,2013-12-07 16:22:00,
2013-12-07 11:27:00,28.4,23.9,30.49,WNW,296,1.0,6.0,83,0.00,,---,0.00,VWS V13.01,2013-12-07 16:27:00,
2013-12-07 11:32:00,28.3,22.9,30.49,NW,308,2.0,9.0,80,0.00,,---,0.00,VWS V13.01,2013-12-07 16:32:00,
2013-12-07 11:37:00,28.3,22.6,30.49,West,279,5.0,9.0,79,0.00,,---,0.00,VWS V13.01,2013-12-07 16:37:00,
2013-12-07 11:42:00,28.3,22.6,30.49,NW,325,3.0,7.0,79,0.00,,---,0.00,VWS V13.01,2013-12-07 16:42:00,
2013-12-07 11:47:00,28.4,22.7,30.50,NW,316,4.0,8.0,79,0.00,,---,0.00,VWS V13.01,2013-12-07 16:47:00,
2013-12-07 11:52:00,28.4,22.7,30.49,WNW,302,8.0,10.0,79,0.00,,---,0.00,VWS V13.01,2013-12-07 16:52:00,
2013-12-07 11:57:00,28.5,22.8,30.49,WNW,284,3.0,10.0,79,0.00,,---,0.00,VWS V13.01,2013-12-07 16:57:00,
2013-12-07 12:02:00,28.6,22.9,30.49,NW,305,3.0,4.0,79,0.00,,---,0.00,VWS V13.01,2013-12-07 17:02:00,
2013-12-07 12:07:00,28.7,23.0,30.49,West,281,2.0,6.0,79,0.00,,---,0.00,VWS V13.01,2013-12-07 17:07:00,
2013-12-07 12:12:00,28.8,23.1,30.49,WNW,286,2.0,6.0,79,0.00,,---,0.00,VWS V13.01,2013-12-07 17:12:00,
2013-12-07 12:17:00,28.8,22.5,30.49,NNW,337,2.0,9.0,77,0.00,,---,0.00,VWS V13.01,2013-12-07 17:17:00,
2013-12-07 12:22:00,28.9,22.3,30.49,North,349,3.0,6.0,76,0.00,,---,0.00,VWS V13.01,2013-12-07 17:22:00,
2013-12-07 12:27:00,29.0,23.0,30.48,WNW,289,11.0,11.0,78,0.00,,---,0.00,VWS V13.01,2013-12-07 17:27:00,
2013-12-07 12:32:00,29.1,23.1,30.48,NW,314,2.0,10.0,78,0.00,,---,0.00,VWS V13.01,2013-12-07 17:32:00,
2013-12-07 12:37:00,29.4,23.1,30.48,WNW,283,7.0,10.0,77,0.00,,---,0.00,VWS V13.01,2013-12-07 17:37:00,
2013-12-07 12:42:00,29.5,22.6,30.48,NW,321,2.0,7.0,75,0.00,,---,0.00,VWS V13.01,2013-12-07 17:42:00,
2013-12-07 12:47:00,29.5,22.6,30.48,West,278,2.0,8.0,75,0.00,,---,0.00,VWS V13.01,2013-12-07 17:47:00,
2013-12-07 12:52:00,29.5,22.6,30.48,NNW,333,2.0,7.0,75,0.00,,---,0.00,VWS V13.01,2013-12-07 17:52:00,
2013-12-07 12:57:00,29.3,22.1,30.48,NW,323,1.0,7.0,74,0.00,,---,0.00,VWS V13.01,2013-12-07 17:57:00,
2013-12-07 13:02:00,29.2,22.3,30.48,WNW,288,4.0,9.0,75,0.00,,---,0.00,VWS V13.01,2013-12-07 18:02:00,
2013-12-07 13:07:00,29.0,21.8,30.48,NW,315,0.0,9.0,74,0.00,,---,0.00,VWS V13.01,2013-12-07 18:07:00,
2013-12-07 13:12:00,29.0,21.8,30.48,NW,320,2.0,6.0,74,0.00,,---,0.00,VWS V13.01,2013-12-07 18:12:00,
2013-12-07 13:17:00,29.4,22.5,30.48,NW,313,2.0,6.0,75,0.00,,---,0.00,VWS V13.01,2013-12-07 18:17:00,
2013-12-07 13:22:00,30.1,22.8,30.48,WNW,298,4.0,7.0,74,0.00,,---,0.00,VWS V13.01,2013-12-07 18:22:00,
2013-12-07 13:27:00,30.6,23.3,30.48,West,275,4.0,9.0,74,0.00,,---,0.00,VWS V13.01,2013-12-07 18:27:00,
2013-12-07 13:32:00,31.0,24.0,30.48,West,272,6.0,7.0,75,0.00,,---,0.00,VWS V13.01,2013-12-07 18:32:00,
2013-12-07 13:37:00,31.6,24.0,30.48,NW,309,2.0,7.0,73,0.00,,---,0.00,VWS V13.01,2013-12-07 18:37:00,
2013-12-07 13:42:00,31.7,23.4,30.48,WNW,303,1.0,7.0,71,0.00,,---,0.00,VWS V13.01,2013-12-07 18:42:00,
2013-12-07 13:47:00,31.4,23.4,30.48,West,279,3.0,7.0,72,0.00,,---,0.00,VWS V13.01,2013-12-07 18:47:00,
2013-12-07 13:52:00,30.8,22.5,30.48,West,275,3.0,7.0,71,0.00,,---,0.00,VWS V13.01,2013-12-07 18:52:00,
2013-12-07 13:57:00,30.3,22.4,30.48,NW,311,1.0,7.0,72,0.00,,---,0.00,VWS V13.01,2013-12-07 18:57:00,
2013-12-07 14:02:00,30.0,22.1,30.47,NW,311,2.0,6.0,72,0.00,,---,0.00,VWS V13.01,2013-12-07 19:02:00,
2013-12-07 14:07:00,29.7,22.4,30.47,NW,325,4.0,6.0,74,0.00,,---,0.00,VWS V13.01,2013-12-07 19:07:00,
2013-12-07 14:12:00,29.6,22.4,30.48,WNW,294,2.0,5.0,74,0.00,,---,0.00,VWS V13.01,2013-12-07 19:12:00,
2013-12-07 14:17:00,29.4,22.5,30.48,WNW,286,3.0,6.0,75,0.00,,---,0.00,VWS V13.01,2013-12-07 19:17:00,
2013-12-07 14:22:00,29.3,22.4,30.48,NW,319,3.0,4.0,75,0.00,,---,0.00,VWS V13.01,2013-12-07 19:22:00,
2013-12-07 14:27:00,29.2,22.3,30.48,West,275,0.0,6.0,75,0.00,,---,0.00,VWS V13.01,2013-12-07 19:27:00,
2013-12-07 14:32:00,29.2,22.6,30.47,WNW,285,0.0,2.0,76,0.00,,---,0.00,VWS V13.01,2013-12-07 19:32:00,
2013-12-07 14:37:00,29.2,22.6,30.47,WNW,300,1.0,4.0,76,0.00,,---,0.00,VWS V13.01,2013-12-07 19:37:00,
2013-12-07 14:42:00,29.3,22.7,30.48,NW,306,2.0,5.0,76,0.00,,---,0.00,VWS V13.01,2013-12-07 19:42:00,
2013-12-07 14:47:00,29.3,22.4,30.47,West,274,1.0,7.0,75,0.00,,---,0.00,VWS V13.01,2013-12-07 19:47:00,
2013-12-07 14:52:00,29.6,22.7,30.48,WNW,303,3.0,8.0,75,0.00,,---,0.00,VWS V13.01,2013-12-07 19:52:00,
2013-12-07 14:57:00,29.8,22.5,30.48,WSW,247,3.0,8.0,74,0.00,,---,0.00,VWS V13.01,2013-12-07 19:57:00,
2013-12-07 15:02:00,29.9,22.6,30.48,WNW,290,3.0,5.0,74,0.00,,---,0.00,VWS V13.01,2013-12-07 20:02:00,
2013-12-07 15:07:00,30.2,22.3,30.48,West,274,6.0,9.0,72,0.00,,---,0.00,VWS V13.01,2013-12-07 20:07:00,
2013-12-07 15:12:00,30.3,22.0,30.48,WNW,293,2.0,8.0,71,0.00,,---,0.00,VWS V13.01,2013-12-07 20:12:00,
2013-12-07 15:17:00,30.2,21.9,30.48,West,265,1.0,9.0,71,0.00,,---,0.00,VWS V13.01,2013-12-07 20:17:00,
2013-12-07 15:22:00,30.1,22.2,30.48,West,276,1.0,6.0,72,0.00,,---,0.00,VWS V13.01,2013-12-07 20:22:00,
2013-12-07 15:27:00,30.0,21.8,30.48,SW,236,3.0,7.0,71,0.00,,---,0.00,VWS V13.01,2013-12-07 20:27:00,
2013-12-07 15:32:00,30.0,22.1,30.48,West,274,2.0,7.0,72,0.00,,---,0.00,VWS V13.01,2013-12-07 20:32:00,
2013-12-07 15:37:00,29.9,21.7,30.48,WNW,288,1.0,7.0,71,0.00,,---,0.00,VWS V13.01,2013-12-07 20:37:00,
2013-12-07 15:42:00,29.9,22.0,30.48,West,265,3.0,8.0,72,0.00,,---,0.00,VWS V13.01,2013-12-07 20:42:00,
2013-12-07 15:47:00,29.8,21.9,30.48,WNW,286,4.0,8.0,72,0.00,,---,0.00,VWS V13.01,2013-12-07 20:47:00,
2013-12-07 15:52:00,29.7,21.8,30.49,SW,234,3.0,7.0,72,0.00,,---,0.00,VWS V13.01,2013-12-07 20:52:00,
2013-12-07 15:57:00,29.7,22.1,30.49,West,259,3.0,7.0,73,0.00,,---,0.00,VWS V13.01,2013-12-07 20:57:00,
2013-12-07 16:02:00,29.9,22.3,30.49,West,267,2.0,4.0,73,0.00,,---,0.00,VWS V13.01,2013-12-07 21:02:00,
2013-12-07 16:07:00,30.1,22.2,30.50,West,280,8.0,10.0,72,0.00,,---,0.01,VWS V13.01,2013-12-07 21:07:00,
2013-12-07 16:12:00,30.2,21.6,30.50,WNW,292,5.0,10.0,70,0.01,,---,0.01,VWS V13.01,2013-12-07 21:12:00,
2013-12-07 16:17:00,30.1,22.2,30.50,WNW,294,2.0,10.0,72,0.01,,---,0.01,VWS V13.01,2013-12-07 21:17:00,
2013-12-07 16:22:00,30.0,22.4,30.50,NW,315,1.0,5.0,73,0.01,,---,0.01,VWS V13.01,2013-12-07 21:22:00,
2013-12-07 16:27:00,29.7,21.8,30.50,NW,306,4.0,8.0,72,0.01,,---,0.01,VWS V13.01,2013-12-07 21:27:00,
2013-12-07 16:32:00,29.5,21.3,30.50,West,279,5.0,6.0,71,0.01,,---,0.01,VWS V13.01,2013-12-07 21:32:00,
2013-12-07 16:37:00,29.3,21.4,30.50,NW,326,8.0,9.0,72,0.01,,---,0.01,VWS V13.01,2013-12-07 21:37:00,
2013-12-07 16:42:00,29.0,20.8,30.51,NW,309,5.0,8.0,71,0.01,,---,0.01,VWS V13.01,2013-12-07 21:42:00,
2013-12-07 16:47:00,28.7,20.5,30.50,NW,314,2.0,8.0,71,0.01,,---,0.01,VWS V13.01,2013-12-07 21:47:00,
2013-12-07 16:52:00,28.5,20.3,30.50,WNW,288,4.0,8.0,71,0.01,,---,0.01,VWS V13.01,2013-12-07 21:52:00,
2013-12-07 16:57:00,28.3,20.4,30.51,NW,305,2.0,8.0,72,0.01,,---,0.01,VWS V13.01,2013-12-07 21:57:00,
2013-12-07 17:02:00,28.1,20.2,30.50,WNW,302,2.0,9.0,72,0.01,,---,0.01,VWS V13.01,2013-12-07 22:02:00,
2013-12-07 17:07:00,27.8,20.3,30.51,NNW,343,2.0,9.0,73,0.01,,---,0.01,VWS V13.01,2013-12-07 22:07:00,
2013-12-07 17:12:00,27.6,19.8,30.51,NNW,335,3.0,7.0,72,0.00,,---,0.01,VWS V13.01,2013-12-07 22:12:00,
2013-12-07 17:17:00,27.4,19.6,30.51,NW,325,2.0,7.0,72,0.00,,---,0.01,VWS V13.01,2013-12-07 22:17:00,
2013-12-07 17:22:00,27.2,19.1,30.51,West,272,2.0,7.0,71,0.00,,---,0.01,VWS V13.01,2013-12-07 22:22:00,
2013-12-07 17:27:00,27.0,19.2,30.52,NW,308,0.0,7.0,72,0.00,,---,0.01,VWS V13.01,2013-12-07 22:27:00,
2013-12-07 17:32:00,26.9,19.1,30.52,NW,316,2.0,7.0,72,0.00,,---,0.01,VWS V13.01,2013-12-07 22:32:00,
2013-12-07 17:37:00,26.8,19.0,30.52,NW,311,2.0,7.0,72,0.00,,---,0.01,VWS V13.01,2013-12-07 22:37:00,
2013-12-07 17:42:00,26.6,18.8,30.53,NNW,338,2.0,3.0,72,0.00,,---,0.01,VWS V13.01,2013-12-07 22:42:00,
2013-12-07 17:47:00,26.5,19.0,30.53,NNW,338,3.0,6.0,73,0.00,,---,0.01,VWS V13.01,2013-12-07 22:47:00,
2013-12-07 17:52:00,26.3,18.8,30.53,NNW,339,2.0,3.0,73,0.00,,---,0.01,VWS V13.01,2013-12-07 22:52:00,
2013-12-07 17:57:00,26.2,18.7,30.53,NW,319,3.0,5.0,73,0.00,,---,0.01,VWS V13.01,2013-12-07 22:57:00,
2013-12-07 18:02:00,26.1,19.0,30.54,NW,306,1.0,5.0,74,0.00,,---,0.01,VWS V13.01,2013-12-07 23:02:00,
2013-12-07 18:07:00,26.0,18.9,30.54,NW,325,2.0,6.0,74,0.00,,---,0.01,VWS V13.01,2013-12-07 23:07:00,
2013-12-07 18:12:00,26.0,19.2,30.54,NW,319,4.0,8.0,75,0.00,,---,0.01,VWS V13.01,2013-12-07 23:12:00,
2013-12-07 18:17:00,25.9,19.4,30.55,NNW,340,4.0,8.0,76,0.00,,---,0.01,VWS V13.01,2013-12-07 23:17:00,
2013-12-07 18:22:00,25.8,19.3,30.55,North,360,2.0,5.0,76,0.00,,---,0.01,VWS V13.01,2013-12-07 23:22:00,
2013-12-07 18:27:00,25.7,19.2,30.55,NNW,338,1.0,6.0,76,0.00,,---,0.01,VWS V13.01,2013-12-07 23:27:00,
2013-12-07 18:32:00,25.5,19.0,30.55,NNW,328,1.0,2.0,76,0.00,,---,0.01,VWS V13.01,2013-12-07 23:32:00,
2013-12-07 18:37:00,25.4,18.9,30.55,NW,317,2.0,4.0,76,0.00,,---,0.01,VWS V13.01,2013-12-07 23:37:00,
2013-12-07 18:42:00,25.2,19.0,30.56,NW,323,3.0,5.0,77,0.00,,---,0.01,VWS V13.01,2013-12-07 23:42:00,
2013-12-07 18:47:00,25.0,18.5,30.56,NNW,340,3.0,6.0,76,0.00,,---,0.01,VWS V13.01,2013-12-07 23:47:00,
2013-12-07 18:52:00,24.8,18.3,30.56,NW,325,0.0,6.0,76,0.00,,---,0.01,VWS V13.01,2013-12-07 23:52:00,
2013-12-07 18:57:00,24.7,18.2,30.56,NW,324,2.0,6.0,76,0.00,,---,0.01,VWS V13.01,2013-12-07 23:57:00,
2013-12-07 19:02:00,24.5,18.3,30.56,NW,325,1.0,5.0,77,0.00,,---,0.01,VWS V13.01,2013-12-08 00:02:00,
2013-12-07 19:07:00,24.3,18.1,30.56,NW,325,0.0,5.0,77,0.00,,---,0.01,VWS V13.01,2013-12-08 00:07:00,
2013-12-07 19:12:00,24.2,18.3,30.56,NW,319,0.0,3.0,78,0.00,,---,0.01,VWS V13.01,2013-12-08 00:12:00,
2013-12-07 19:17:00,24.0,18.1,30.56,NNW,341,5.0,5.0,78,0.00,,---,0.01,VWS V13.01,2013-12-08 00:17:00,
2013-12-07 19:22:00,23.9,18.0,30.57,NNW,340,3.0,6.0,78,0.00,,---,0.01,VWS V13.01,2013-12-08 00:22:00,
2013-12-07 19:27:00,23.7,17.6,30.57,NNW,339,1.0,6.0,77,0.00,,---,0.01,VWS V13.01,2013-12-08 00:27:00,
2013-12-07 19:32:00,23.6,17.5,30.57,NNW,336,2.0,3.0,77,0.00,,---,0.01,VWS V13.01,2013-12-08 00:32:00,
2013-12-07 19:37:00,23.5,17.1,30.57,North,355,5.0,7.0,76,0.00,,---,0.01,VWS V13.01,2013-12-08 00:37:00,
2013-12-07 19:42:00,23.4,17.0,30.57,North,5,1.0,3.0,76,0.00,,---,0.01,VWS V13.01,2013-12-08 00:42:00,
2013-12-07 19:47:00,23.3,16.9,30.57,North,5,1.0,3.0,76,0.00,,---,0.01,VWS V13.01,2013-12-08 00:47:00,
2013-12-07 19:52:00,23.2,16.8,30.57,North,5,1.0,3.0,76,0.00,,---,0.01,VWS V13.01,2013-12-08 00:52:00,
2013-12-07 19:57:00,23.1,16.7,30.57,North,5,2.0,3.0,76,0.00,,---,0.01,VWS V13.01,2013-12-08 00:57:00,
2013-12-07 20:02:00,23.1,17.0,30.58,North,5,1.0,4.0,77,0.00,,---,0.01,VWS V13.01,2013-12-08 01:02:00,
2013-12-07 20:07:00,22.9,16.8,30.58,North,5,0.0,4.0,77,0.00,,---,0.01,VWS V13.01,2013-12-08 01:07:00,
2013-12-07 20:12:00,22.9,16.8,30.58,North,5,1.0,2.0,77,0.00,,---,0.01,VWS V13.01,2013-12-08 01:12:00,
2013-12-07 20:17:00,22.9,17.1,30.58,North,5,0.0,2.0,78,0.00,,---,0.01,VWS V13.01,2013-12-08 01:17:00,
2013-12-07 20:22:00,22.9,16.8,30.59,North,5,1.0,2.0,77,0.00,,---,0.01,VWS V13.01,2013-12-08 01:22:00,
2013-12-07 20:27:00,23.0,16.9,30.59,North,5,0.0,2.0,77,0.00,,---,0.01,VWS V13.01,2013-12-08 01:27:00,
2013-12-07 20:32:00,23.1,17.3,30.59,North,5,2.0,3.0,78,0.00,,---,0.01,VWS V13.01,2013-12-08 01:32:00,
2013-12-07 20:37:00,23.2,17.1,30.59,NNW,344,1.0,4.0,77,0.00,,---,0.01,VWS V13.01,2013-12-08 01:37:00,
2013-12-07 20:42:00,23.3,17.5,30.59,NNW,343,2.0,3.0,78,0.00,,---,0.01,VWS V13.01,2013-12-08 01:42:00,
2013-12-07 20:47:00,23.3,17.5,30.59,NNW,343,1.0,3.0,78,0.00,,---,0.01,VWS V13.01,2013-12-08 01:47:00,
2013-12-07 20:52:00,23.3,17.2,30.59,NNW,343,2.0,2.0,77,0.00,,---,0.01,VWS V13.01,2013-12-08 01:52:00,
2013-12-07 20:57:00,23.3,17.2,30.59,NNW,343,0.0,2.0,77,0.00,,---,0.01,VWS V13.01,2013-12-08 01:57:00,
2013-12-07 21:02:00,23.4,17.3,30.59,NNW,343,0.0,2.0,77,0.00,,---,0.01,VWS V13.01,2013-12-08 02:02:00,
2013-12-07 21:07:00,23.3,17.2,30.60,NNW,343,0.0,2.0,77,0.00,,---,0.01,VWS V13.01,2013-12-08 02:07:00,
2013-12-07 21:12:00,23.3,17.2,30.60,NNW,343,0.0,2.0,77,0.00,,---,0.01,VWS V13.01,2013-12-08 02:12:00,
2013-12-07 21:17:00,23.3,17.5,30.60,NNW,343,0.0,3.0,78,0.00,,---,0.01,VWS V13.01,2013-12-08 02:17:00,
2013-12-07 21:22:00,23.3,17.2,30.60,NNW,343,0.0,2.0,77,0.00,,---,0.01,VWS V13.01,2013-12-08 02:22:00,
2013-12-07 21:27:00,23.3,17.2,30.60,NNW,343,2.0,2.0,77,0.00,,---,0.01,VWS V13.01,2013-12-08 02:27:00,
2013-12-07 21:32:00,23.3,16.9,30.60,NNW,343,2.0,2.0,76,0.00,,---,0.01,VWS V13.01,2013-12-08 02:32:00,
2013-12-07 21:37:00,23.3,16.9,30.60,NNW,343,2.0,3.0,76,0.00,,---,0.01,VWS V13.01,2013-12-08 02:37:00,
2013-12-07 21:42:00,23.2,16.8,30.60,NNW,343,0.0,1.0,76,0.00,,---,0.01,VWS V13.01,2013-12-08 02:42:00,
2013-12-07 21:47:00,23.2,17.1,30.60,NNW,343,0.0,1.0,77,0.00,,---,0.01,VWS V13.01,2013-12-08 02:47:00,
2013-12-07 21:52:00,23.1,17.0,30.59,NNW,343,0.0,1.0,77,0.00,,---,0.01,VWS V13.01,2013-12-08 02:52:00,
2013-12-07 21:57:00,23.2,17.1,30.60,North,5,0.0,3.0,77,0.00,,---,0.01,VWS V13.01,2013-12-08 02:57:00,
2013-12-07 22:02:00,23.1,17.0,30.60,North,5,3.0,3.0,77,0.00,,---,0.01,VWS V13.01,2013-12-08 03:02:00,
2013-12-07 22:07:00,23.1,16.7,30.60,NNE,13,0.0,4.0,76,0.00,,---,0.01,VWS V13.01,2013-12-08 03:07:00,
2013-12-07 22:12:00,23.1,17.0,30.61,NNE,12,3.0,4.0,77,0.00,,---,0.01,VWS V13.01,2013-12-08 03:12:00,
2013-12-07 22:17:00,23.0,16.9,30.61,NNE,13,0.0,4.0,77,0.00,,---,0.01,VWS V13.01,2013-12-08 03:17:00,
2013-12-07 22:22:00,23.0,16.9,30.60,NNE,13,1.0,3.0,77,0.00,,---,0.01,VWS V13.01,2013-12-08 03:22:00,
2013-12-07 22:27:00,23.0,16.9,30.59,NNE,19,2.0,4.0,77,0.00,,---,0.01,VWS V13.01,2013-12-08 03:27:00,
2013-12-07 22:32:00,22.9,16.8,30.59,NNE,24,4.0,4.0,77,0.00,,---,0.01,VWS V13.01,2013-12-08 03:32:00,
2013-12-07 22:37:00,22.9,16.8,30.59,NE,39,3.0,4.0,77,0.00,,---,0.01,VWS V13.01,2013-12-08 03:37:00,
2013-12-07 22:42:00,22.8,16.7,30.59,NNE,26,2.0,2.0,77,0.00,,---,0.01,VWS V13.01,2013-12-08 03:42:00,
2013-12-07 22:47:00,22.7,16.6,30.59,North,9,3.0,4.0,77,0.00,,---,0.01,VWS V13.01,2013-12-08 03:47:00,
2013-12-07 22:52:00,22.6,16.5,30.59,North,9,1.0,3.0,77,0.00,,---,0.01,VWS V13.01,2013-12-08 03:52:00,
2013-12-07 22:57:00,22.6,16.8,30.60,North,9,0.0,3.0,78,0.00,,---,0.01,VWS V13.01,2013-12-08 03:57:00,
2013-12-07 23:02:00,22.4,16.6,30.60,North,9,0.0,1.0,78,0.00,,---,0.01,VWS V13.01,2013-12-08 04:02:00,
2013-12-07 23:07:00,22.4,16.6,30.60,North,9,0.0,1.0,78,0.00,,---,0.01,VWS V13.01,2013-12-08 04:07:00,
2013-12-07 23:12:00,22.2,16.7,30.59,NNE,26,2.0,4.0,79,0.00,,---,0.01,VWS V13.01,2013-12-08 04:12:00,
2013-12-07 23:17:00,22.1,16.3,30.60,NNE,26,1.0,4.0,78,0.00,,---,0.01,VWS V13.01,2013-12-08 04:17:00,
2013-12-07 23:22:00,21.9,16.1,30.60,NNE,25,1.0,3.0,78,0.00,,---,0.01,VWS V13.01,2013-12-08 04:22:00,
2013-12-07 23:27:00,21.7,16.2,30.60,NNE,25,1.0,3.0,79,0.00,,---,0.01,VWS V13.01,2013-12-08 04:27:00,
2013-12-07 23:32:00,21.6,16.1,30.60,NNE,25,0.0,2.0,79,0.00,,---,0.01,VWS V13.01,2013-12-08 04:32:00,
2013-12-07 23:37:00,21.4,15.9,30.61,NNE,25,1.0,2.0,79,0.00,,---,0.01,VWS V13.01,2013-12-08 04:37:00,
2013-12-07 23:42:00,21.3,15.8,30.60,NNE,27,1.0,5.0,79,0.00,,---,0.01,VWS V13.01,2013-12-08 04:42:00,
2013-12-07 23:47:00,21.2,15.7,30.60,North,355,3.0,5.0,79,0.00,,---,0.01,VWS V13.01,2013-12-08 04:47:00,
2013-12-07 23:52:00,21.2,15.7,30.60,NNE,13,4.0,6.0,79,0.00,,---,0.01,VWS V13.01,2013-12-08 04:52:00,
2013-12-07 23:57:00,21.1,15.3,30.61,NNE,13,3.0,6.0,78,0.00,,---,0.01,VWS V13.01,2013-12-08 04:57:00,